Time,TemperatureF,DewpointF,PressureIn,WindDirection,WindDirectionDegrees,WindSpeedMPH,WindSpeedGustMPH,Humidity,HourlyPrecipIn,Conditions,Clouds,dailyrainin,SoftwareType,DateUTC
2013-09-20 00:42:00,66.0,63.0,29.82,North,0,0.0,-999.0,90,0.00,,,-99.99,,2013-09-20 07:42:00,
2013-09-20 00:52:00,66.0,63.0,29.82,North,0,0.0,-999.0,90,0.00,,,-99.99,,2013-09-20 07:52:00,
2013-09-20 01:42:00,66.0,63.0,29.82,North,0,0.0,-999.0,90,0.00,,,-99.99,,2013-09-20 08:42:00,
2013-09-20 01:52:00,66.0,63.0,29.82,North,0,0.0,-999.0,90,0.00,,,-99.99,,2013-09-20 08:52:00,
2013-09-20 02:22:00,66.0,63.0,29.82,ESE,110,2.0,-999.0,90,0.00,,,-99.99,,2013-09-20 09:22:00,
2013-09-20 02:33:00,66.0,63.0,29.82,ESE,110,2.0,-999.0,90,0.00,,,-99.99,,2013-09-20 09:33:00,
2013-09-20 02:43:00,66.0,63.0,29.82,ESE,110,2.0,-999.0,90,0.00,,,-99.99,,2013-09-20 09:43:00,
2013-09-20 02:53:00,66.0,63.0,29.82,ESE,110,2.0,-999.0,90,0.00,,,-99.99,,2013-09-20 09:53:00,
2013-09-20 03:42:00,66.0,63.0,29.81,North,0,0.0,-999.0,89,0.00,,,-99.99,,2013-09-20 10:42:00,
2013-09-20 03:53:00,66.0,63.0,29.81,North,0,0.0,-999.0,89,0.00,,,-99.99,,2013-09-20 10:53:00,
2013-09-20 04:42:00,66.0,62.0,29.81,North,0,0.0,-999.0,88,0.00,,,-99.99,,2013-09-20 11:42:00,
2013-09-20 04:52:00,66.0,62.0,29.81,North,0,0.0,-999.0,88,0.00,,,-99.99,,2013-09-20 11:52:00,
2013-09-20 05:42:00,65.0,61.0,29.82,SSW,210,3.0,-999.0,88,0.00,,,-99.99,,2013-09-20 12:42:00,
2013-09-20 05:52:00,65.0,61.0,29.82,SSW,210,3.0,-999.0,88,0.00,,,-99.99,,2013-09-20 12:52:00,
2013-09-20 06:42:00,65.0,61.0,29.82,ESE,110,1.0,-999.0,88,0.00,,,-99.99,,2013-09-20 13:42:00,
2013-09-20 06:52:00,65.0,61.0,29.82,ESE,110,1.0,-999.0,88,0.00,,,-99.99,,2013-09-20 13:52:00,
2013-09-20 07:42:00,65.0,62.0,29.84,SE,140,1.0,-999.0,89,0.00,,,-99.99,,2013-09-20 14:42:00,
2013-09-20 07:52:00,65.0,62.0,29.84,SE,140,1.0,-999.0,89,0.00,,,-99.99,,2013-09-20 14:52:00,
2013-09-20 07:53:00,65.0,62.0,29.85,North,0,0.0,-999.0,89,0.00,,,-99.99,,2013-09-20 14:53:00,
2013-09-20 08:21:00,65.0,62.0,29.85,North,0,0.0,-999.0,89,0.00,,,-99.99,,2013-09-20 15:21:00,
2013-09-20 08:33:00,65.0,62.0,29.85,North,0,0.0,-999.0,89,0.00,,,-99.99,,2013-09-20 15:33:00,
2013-09-20 08:44:00,65.0,62.0,29.85,North,0,0.0,-999.0,89,0.00,,,-99.99,,2013-09-20 15:44:00,
2013-09-20 09:42:00,66.0,63.0,29.86,ESE,110,3.0,-999.0,89,0.00,,,-99.99,,2013-09-20 16:42:00,
2013-09-20 09:52:00,66.0,63.0,29.86,ESE,110,3.0,-999.0,89,0.00,,,-99.99,,2013-09-20 16:52:00,
2013-09-20 10:42:00,66.0,63.0,29.87,North,0,0.0,-999.0,89,0.00,,,-99.99,,2013-09-20 17:42:00,
2013-09-20 10:53:00,66.0,63.0,29.87,North,0,0.0,-999.0,89,0.00,,,-99.99,,2013-09-20 17:53:00,
2013-09-20 11:42:00,67.0,63.0,29.88,North,0,0.0,-999.0,88,0.00,,,-99.99,,2013-09-20 18:42:00,
2013-09-20 11:52:00,67.0,63.0,29.88,North,0,0.0,-999.0,88,0.00,,,-99.99,,2013-09-20 18:52:00,
2013-09-20 12:42:00,68.0,65.0,29.88,SSW,200,1.0,-999.0,90,0.00,,,-99.99,,2013-09-20 19:42:00,
2013-09-20 12:52:00,68.0,65.0,29.88,SSW,200,1.0,-999.0,90,0.00,,,-99.99,,2013-09-20 19:52:00,
2013-09-20 13:42:00,67.0,65.0,29.88,North,0,0.0,-999.0,92,0.00,,,-99.99,,2013-09-20 20:42:00,
2013-09-20 13:52:00,67.0,65.0,29.88,North,0,0.0,-999.0,92,0.00,,,-99.99,,2013-09-20 20:52:00,
2013-09-20 15:43:00,66.0,64.0,29.87,North,0,0.0,-999.0,92,0.00,,,-99.99,,2013-09-20 22:43:00,
2013-09-20 15:53:00,66.0,64.0,29.87,North,0,0.0,-999.0,92,0.00,,,-99.99,,2013-09-20 22:53:00,
2013-09-20 16:42:00,67.0,64.0,29.86,North,0,0.0,-999.0,89,0.00,,,-99.99,,2013-09-20 23:42:00,
2013-09-20 16:53:00,67.0,64.0,29.86,North,0,0.0,-999.0,89,0.00,,,-99.99,,2013-09-20 23:53:00,
2013-09-20 17:21:00,68.0,64.0,29.84,North,0,0.0,-999.0,87,0.00,,,-99.99,,2013-09-21 00:21:00,
2013-09-20 17:32:00,68.0,64.0,29.84,North,0,0.0,-999.0,87,0.00,,,-99.99,,2013-09-21 00:32:00,
2013-09-20 17:42:00,68.0,64.0,29.84,North,0,0.0,-999.0,87,0.00,,,-99.99,,2013-09-21 00:42:00,
2013-09-20 17:52:00,68.0,64.0,29.84,North,0,0.0,-999.0,87,0.00,,,-99.99,,2013-09-21 00:52:00,
2013-09-20 18:42:00,67.0,63.0,29.83,North,0,0.0,-999.0,87,0.00,,,-99.99,,2013-09-21 01:42:00,
2013-09-20 18:52:00,67.0,63.0,29.83,North,0,0.0,-999.0,87,0.00,,,-99.99,,2013-09-21 01:52:00,
2013-09-20 19:42:00,66.0,64.0,29.84,West,260,2.0,-999.0,93,0.00,,,-99.99,,2013-09-21 02:42:00,
2013-09-20 19:52:00,66.0,64.0,29.84,West,260,2.0,-999.0,93,0.00,,,-99.99,,2013-09-21 02:52:00,
2013-09-20 19:54:00,65.0,63.0,29.86,West,280,3.0,-999.0,93,0.00,,,-99.99,,2013-09-21 02:54:00,
2013-09-20 20:22:00,65.0,63.0,29.86,West,280,3.0,-999.0,93,0.00,,,-99.99,,2013-09-21 03:22:00,
2013-09-20 20:34:00,65.0,63.0,29.86,West,280,3.0,-999.0,93,0.00,,,-99.99,,2013-09-21 03:34:00,
2013-09-20 20:44:00,65.0,63.0,29.86,West,280,3.0,-999.0,93,0.00,,,-99.99,,2013-09-21 03:44:00,
2013-09-20 21:43:00,65.0,62.0,29.87,NW,310,1.0,-999.0,91,0.00,,,-99.99,,2013-09-21 04:43:00,
2013-09-20 21:54:00,65.0,62.0,29.87,NW,310,1.0,-999.0,91,0.00,,,-99.99,,2013-09-21 04:54:00,
2013-09-20 22:23:00,65.0,62.0,29.88,North,0,0.0,-999.0,91,0.00,,,-99.99,,2013-09-21 05:23:00,
2013-09-20 22:34:00,65.0,62.0,29.88,North,0,0.0,-999.0,91,0.00,,,-99.99,,2013-09-21 05:34:00,
2013-09-20 22:43:00,65.0,62.0,29.88,North,0,0.0,-999.0,91,0.00,,,-99.99,,2013-09-21 05:43:00,
2013-09-20 22:52:00,65.0,62.0,29.88,North,0,0.0,-999.0,91,0.00,,,-99.99,,2013-09-21 05:52:00,
2013-09-20 23:42:00,65.0,62.0,29.88,West,270,3.0,-999.0,90,0.00,,,-99.99,,2013-09-21 06:42:00,
2013-09-20 23:52:00,65.0,62.0,29.88,West,270,3.0,-999.0,90,0.00,,,-99.99,,2013-09-21 06:52:00,